QPF
0.00 0.00 0.03 0.01 0.03 0.08 0.13 0.08 0.04 0.06 0.08 0.04 0.05 0.10 0.01 0.01 0.02 0.02 0.02 0.02 0.04 0.06 0.06 0.02 0.00 0.00 0.00 0.00 0.00 0.00 0.00 0.00 0.00 0.00 0.00 0.00 0.00 0.00 0.00 0.00 0.00 0.00 0.00
0.00 0.01 0.02 0.02 0.03 0.05 0.13 0.07 0.06 0.13 0.13 0.05 0.04 0.01 0.00 0.00 0.01 0.03 0.02 0.02 0.03 0.04 0.04 0.02 0.01 0.01 0.00 0.00 0.00 0.00 0.00 0.00 0.00 0.00 0.00 0.00 0.00 0.00 0.00 0.00 0.00 0.00 0.00
0.00 0.01 0.01 0.03 0.03 0.07 0.06 0.07 0.08 0.14 0.07 0.16 0.16 0.04 0.01 0.01 0.02 0.06 0.07 0.05 0.05 0.04 0.03 0.01 0.00 0.00 0.00 0.00 0.00 0.00 0.00 0.00 0.00 0.00 0.00 0.00 0.00 0.00 0.00 0.00 0.00 0.00 0.00
0.00 0.02 0.03 0.04 0.06 0.09 0.05 0.05 0.05 0.09 0.04 0.32 0.22 0.10 0.04 0.05 0.07 0.08 0.10 0.08 0.05 0.02 0.01 0.00 0.00 0.00 0.00 0.00 0.00 0.00 0.00 0.00 0.00 0.00 0.00 0.00 0.00 0.00 0.00 0.00 0.00 0.00 0.00
0.00 0.03 0.05 0.03 0.02 0.04 0.05 0.10 0.08 0.08 0.05 0.02 0.11 0.26 0.09 0.06 0.04 0.06 0.04 0.02 0.01 0.00 0.00 0.00 0.00 0.00 0.00 0.00 0.00 0.00 0.00 0.00 0.00 0.00 0.00 0.00 0.00 0.00 0.00 0.00 0.00 0.00 0.00
0.00 0.00 0.02 0.07 0.10 0.08 0.17 0.18 0.11 0.05 0.04 0.00 0.04 0.23 0.13 0.03 0.01 0.00 0.00 0.00 0.00 0.01 0.00 0.00 0.00 0.00 0.00 0.00 0.00 0.00 0.00 0.00 0.00 0.00 0.00 0.00 0.00 0.00 0.00 0.00 0.00 0.00 0.00
0.00 0.00 0.04 0.14 0.07 0.08 0.10 0.06 0.14 0.16 0.02 0.00 0.04 0.11 0.00 0.00 0.00 0.00 0.00 0.00 0.00 0.00 0.00 0.00 0.00 0.00 0.00 0.00 0.00 0.00 0.00 0.00 0.00 0.00 0.00 0.00 0.00 0.00 0.00 0.00 0.00 0.00 0.00
0.01 0.00 0.13 0.18 0.09 0.11 0.16 0.14 0.09 0.08 0.03 0.03 0.02 0.01 0.00 0.00 0.00 0.00 0.00 0.00 0.00 0.00 0.00 0.00 0.00 0.00 0.00 0.00 0.00 0.00 0.00 0.00 0.00 0.00 0.00 0.00 0.00 0.00 0.00 0.00 0.00 0.00 0.00
0.04 0.01 0.02 0.05 0.08 0.12 0.12 0.12 0.11 0.04 0.03 0.01 0.01 0.01 0.00 0.00 0.00 0.00 0.00 0.00 0.00 0.00 0.00 0.00 0.00 0.00 0.00 0.00 0.00 0.00 0.00 0.00 0.00 0.00 0.00 0.00 0.00 0.00 0.00 0.00 0.00 0.00 0.00
0.05 0.00 0.00 0.00 0.00 0.00 0.01 0.03 0.01 0.01 0.01 0.00 0.00 0.00 0.00 0.00 0.00 0.00 0.00 0.00 0.00 0.00 0.00 0.00 0.00 0.00 0.00 0.00 0.00 0.00 0.00 0.00 0.00 0.00 0.00 0.00 0.00 0.00 0.00 0.00 0.00 0.00 0.00
0.05 0.00 0.00 0.00 0.00 0.00 0.00 0.00 0.00 0.00 0.00 0.00 0.00 0.00 0.00 0.00 0.00 0.00 0.00 0.00 0.00 0.00 0.00 0.00 0.00 0.00 0.00 0.00 0.00 0.00 0.00 0.00 0.00 0.00 0.00 0.00 0.00 0.00 0.00 0.00 0.00 0.00 0.00
0.00 0.00 0.00 0.00 0.00 0.00 0.00 0.00 0.00 0.00 0.00 0.00 0.00 0.00 0.00 0.00 0.00 0.00 0.00 0.00 0.00 0.00 0.00 0.00 0.00 0.00 0.00 0.00 0.00 0.00 0.00 0.00 0.00 0.00 0.00 0.00 0.00 0.00 0.00 0.00 0.00 0.00 0.00
0.00 0.00 0.00 0.00 0.00 0.00 0.00 0.00 0.00 0.00 0.00 0.00 0.00 0.00 0.00 0.00 0.00 0.00 0.00 0.00 0.00 0.00 0.00 0.00 0.00 0.00 0.00 0.00 0.00 0.00 0.00 0.00 0.00 0.00 0.00 0.00 0.00 0.00 0.00 0.00 0.00 0.00 0.00
0.00 0.00 0.00 0.00 0.00 0.00 0.00 0.00 0.00 0.00 0.00 0.00 0.00 0.00 0.00 0.00 0.00 0.00 0.00 0.00 0.00 0.00 0.00 0.00 0.00 0.00 0.00 0.00 0.00 0.00 0.00 0.00 0.00 0.00 0.00 0.00 0.00 0.00 0.00 0.00 0.00 0.00 0.00
0.00 0.00 0.00 0.00 0.00 0.00 0.00 0.00 0.00 0.00 0.00 0.00 0.00 0.00 0.00 0.00 0.00 0.00 0.00 0.00 0.00 0.00 0.00 0.00 0.00 0.00 0.00 0.00 0.00 0.00 0.00 0.00 0.00 0.00 0.00 0.00 0.00 0.00 0.00 0.00 0.00 0.00 0.00
0.00 0.00 0.00 0.00 0.00 0.00 0.00 0.00 0.00 0.00 0.00 0.00 0.00 0.00 0.00 0.00 0.00 0.00 0.00 0.00 0.00 0.00 0.00 0.00 0.00 0.00 0.00 0.00 0.00 0.00 0.00 0.00 0.00 0.00 0.00 0.00 0.00 0.00 0.00 0.00 0.00 0.00 0.00
0.00 0.00 0.00 0.00 0.00 0.00 0.00 0.00 0.00 0.00 0.00 0.00 0.00 0.00 0.00 0.00 0.00 0.00 0.00 0.00 0.00 0.00 0.00 0.00 0.00 0.00 0.00 0.00 0.00 0.00 0.00 0.00 0.00 0.00 0.00 0.00 0.00 0.00 0.00 0.00 0.00 0.00 0.00
0.00 0.00 0.00 0.00 0.00 0.00 0.00 0.00 0.00 0.00 0.00 0.00 0.00 0.00 0.00 0.00 0.00 0.00 0.00 0.00 0.00 0.00 0.00 0.00 0.00 0.00 0.00 0.00 0.00 0.00 0.00 0.00 0.00 0.00 0.00 0.00 0.00 0.00 0.00 0.00 0.00 0.00 0.00
0.00 0.00 0.00 0.00 0.00 0.00 0.00 0.00 0.00 0.00 0.00 0.00 0.00 0.00 0.00 0.00 0.00 0.00 0.00 0.00 0.00 0.00 0.00 0.00 0.00 0.00 0.00 0.00 0.00 0.00 0.00 0.00 0.00 0.00 0.00 0.00 0.00 0.00 0.00 0.00 0.00 0.00 0.00
0.00 0.00 0.00 0.00 0.00 0.01 0.00 0.00 0.00 0.00 0.00 0.00 0.00 0.00 0.00 0.00 0.00 0.00 0.00 0.00 0.00 0.00 0.00 0.00 0.00 0.00 0.00 0.00 0.00 0.00 0.00 0.00 0.00 0.00 0.00 0.00 0.00 0.00 0.00 0.00 0.00 0.00 0.00
0.00 0.00 0.00 0.00 0.00 0.01 0.01 0.00 0.00 0.00 0.00 0.00 0.00 0.00 0.00 0.00 0.00 0.00 0.00 0.00 0.00 0.00 0.00 0.00 0.00 0.00 0.00 0.00 0.00 0.00 0.00 0.00 0.00 0.00 0.00 0.00 0.00 0.00 0.00 0.00 0.00 0.00 0.00
0.00 0.00 0.00 0.00 0.00 0.00 0.00 0.00 0.00 0.00 0.00 0.00 0.00 0.00 0.00 0.00 0.00 0.00 0.00 0.00 0.00 0.00 0.00 0.00 0.00 0.00 0.00 0.00 0.00 0.00 0.00 0.00 0.00 0.00 0.00 0.00 0.00 0.00 0.00 0.00 0.00 0.00 0.00
0.00 0.00 0.00 0.00 0.00 0.00 0.00 0.00 0.00 0.00 0.00 0.00 0.00 0.00 0.00 0.00 0.00 0.00 0.00 0.00 0.00 0.00 0.00 0.00 0.00 0.00 0.00 0.00 0.00 0.00 0.00 0.00 0.00 0.00 0.00 0.00 0.00 0.00 0.00 0.00 0.00 0.00 0.00
0.00 0.00 0.00 0.00 0.00 0.00 0.00 0.00 0.00 0.00 0.00 0.00 0.00 0.00 0.00 0.00 0.00 0.00 0.00 0.00 0.00 0.00 0.00 0.00 0.00 0.00 0.00 0.00 0.00 0.00 0.00 0.00 0.00 0.00 0.00 0.00 0.00 0.00 0.00 0.00 0.00 0.00 0.00
0.00 0.00 0.00 0.00 0.00 0.00 0.00 0.00 0.00 0.00 0.00 0.00 0.00 0.00 0.00 0.00 0.00 0.00 0.00 0.00 0.00 0.00 0.00 0.00 0.00 0.00 0.00 0.00 0.00 0.00 0.00 0.00 0.00 0.00 0.00 0.00 0.00 0.00 0.00 0.00 0.00 0.00 0.00
0.00 0.00 0.01 0.01 0.00 0.00 0.00 0.00 0.00 0.00 0.00 0.00 0.00 0.00 0.00 0.00 0.00 0.00 0.00 0.00 0.00 0.00 0.00 0.00 0.00 0.00 0.00 0.00 0.00 0.00 0.00 0.00 0.00 0.00 0.00 0.00 0.00 0.00 0.00 0.00 0.00 0.00 0.00
MSLP
1015.05 1014.77 1015.04 1015.16 1015.39 1015.65 1015.78 1015.87 1015.79 1015.86 1015.84 1016.05 1016.18 1016.38 1016.49 1016.81 1016.97 1017.05 1017.22 1017.26 1017.31 1017.37 1017.39 1017.56 1017.84 1018.02 1018.30 1018.39 1018.56 1018.82 1018.99 1018.95 1018.98 1018.96 1019.11 1019.04 1019.04 1019.18 1019.28 1019.22 1019.31 1019.46 1019.26
1014.54 1014.80 1015.10 1015.25 1015.55 1015.79 1015.83 1016.04 1016.12 1016.09 1016.12 1016.43 1016.55 1016.77 1016.91 1017.15 1017.21 1017.54 1017.60 1017.67 1017.80 1017.79 1017.97 1018.16 1018.34 1018.56 1018.87 1019.13 1019.41 1019.53 1019.63 1019.61 1019.64 1019.69 1019.81 1019.96 1019.94 1019.80 1019.71 1019.93 1020.04 1020.06 1019.88
1014.71 1014.99 1015.12 1015.48 1015.73 1015.94 1015.93 1016.39 1016.36 1016.60 1016.74 1016.74 1016.96 1017.19 1017.44 1017.61 1017.67 1018.06 1018.07 1018.18 1018.34 1018.42 1018.59 1018.77 1018.92 1019.18 1019.43 1019.73 1019.86 1019.97 1020.03 1020.10 1020.09 1020.16 1020.35 1020.46 1020.39 1020.41 1020.61 1020.63 1020.49 1020.53 1020.45
1014.69 1015.05 1015.27 1015.68 1015.97 1016.19 1016.44 1016.62 1016.65 1016.82 1017.02 1017.23 1017.50 1017.61 1018.02 1018.18 1018.19 1018.47 1018.51 1018.74 1018.79 1018.99 1019.34 1019.53 1019.63 1019.88 1020.15 1020.31 1020.59 1020.73 1020.74 1020.85 1020.99 1021.00 1021.06 1021.13 1020.96 1021.13 1021.18 1021.13 1021.11 1021.20 1021.06
1015.03 1015.25 1015.54 1015.82 1016.18 1016.47 1016.70 1016.82 1016.93 1017.09 1017.23 1017.68 1018.00 1018.18 1018.70 1018.80 1018.82 1019.05 1019.17 1019.31 1019.42 1019.67 1019.95 1020.17 1020.20 1020.44 1020.63 1020.88 1021.16 1021.41 1021.47 1021.56 1021.65 1021.74 1021.74 1021.79 1021.62 1021.68 1021.67 1021.71 1021.72 1021.62 1021.73
1015.30 1015.48 1015.78 1016.10 1016.38 1016.66 1017.01 1017.26 1017.36 1017.49 1017.63 1017.99 1018.53 1019.19 1019.27 1019.18 1019.34 1019.55 1019.78 1019.96 1020.06 1020.30 1020.47 1020.68 1020.61 1020.86 1021.18 1021.32 1021.67 1021.87 1021.98 1022.08 1022.21 1022.27 1022.15 1022.12 1022.00 1022.15 1022.18 1022.26 1022.27 1022.32 1022.22
1015.54 1015.76 1016.16 1016.39 1016.71 1016.99 1017.13 1017.53 1017.80 1017.91 1018.17 1018.08 1018.80 1019.50 1019.73 1019.66 1019.82 1020.11 1020.31 1020.47 1020.58 1020.83 1020.99 1020.92 1020.98 1021.49 1021.72 1021.99 1022.16 1022.44 1022.62 1022.72 1022.89 1022.92 1022.78 1022.77 1022.74 1022.60 1022.73 1022.72 1022.63 1022.62 1022.39
1015.76 1016.10 1016.54 1016.71 1017.08 1017.35 1017.47 1017.84 1018.10 1018.49 1018.75 1018.58 1019.26 1019.71 1020.08 1020.18 1020.31 1020.61 1020.80 1020.87 1021.00 1021.31 1021.42 1021.51 1021.63 1021.99 1022.16 1022.49 1022.64 1022.90 1023.08 1023.23 1023.37 1023.42 1023.34 1023.24 1023.12 1023.05 1023.16 1023.11 1022.97 1022.91 1022.76
1016.17 1016.61 1017.03 1017.23 1017.57 1017.77 1017.87 1018.01 1018.49 1018.96 1019.13 1019.25 1019.72 1020.12 1020.43 1020.64 1020.83 1021.00 1021.11 1021.28 1021.52 1021.79 1021.93 1022.04 1022.18 1022.39 1022.65 1022.95 1023.16 1023.42 1023.62 1023.78 1023.80 1023.77 1023.64 1023.61 1023.44 1023.38 1023.51 1023.41 1023.33 1023.20 1023.25
1016.78 1017.16 1017.64 1017.76 1018.06 1018.31 1018.44 1018.75 1019.16 1019.46 1019.64 1019.91 1020.27 1020.63 1020.96 1021.18 1021.27 1021.42 1021.60 1021.83 1021.95 1022.21 1022.34 1022.56 1022.71 1022.87 1023.12 1023.39 1023.61 1023.91 1024.14 1024.11 1024.19 1024.08 1024.00 1023.91 1023.84 1023.78 1023.87 1023.72 1023.64 1023.82 1023.82
1017.40 1017.84 1018.07 1018.24 1018.60 1018.82 1019.08 1019.32 1019.64 1019.94 1020.22 1020.65 1020.94 1021.18 1021.39 1021.70 1021.79 1021.88 1022.03 1022.26 1022.36 1022.44 1022.61 1023.01 1023.12 1023.29 1023.58 1023.89 1024.12 1024.35 1024.46 1024.63 1024.65 1024.50 1024.37 1024.38 1024.17 1024.18 1024.22 1024.18 1024.28 1024.44 1024.46
1017.97 1018.37 1018.48 1018.71 1018.96 1019.14 1019.42 1019.69 1020.15 1020.51 1020.91 1021.17 1021.50 1021.69 1021.90 1022.13 1022.23 1022.35 1022.56 1022.61 1022.71 1022.82 1023.01 1023.25 1023.51 1023.79 1024.02 1024.42 1024.72 1024.89 1024.98 1025.06 1024.99 1024.94 1024.66 1024.65 1024.51 1024.59 1024.67 1024.83 1024.97 1025.04 1025.13
1018.11 1018.49 1018.85 1018.95 1019.28 1019.48 1019.80 1019.98 1020.58 1020.97 1021.44 1021.66 1021.89 1022.06 1022.37 1022.47 1022.71 1022.99 1023.12 1023.21 1023.36 1023.37 1023.53 1023.88 1024.14 1024.35 1024.50 1024.81 1025.22 1025.30 1025.36 1025.39 1025.42 1025.27 1025.14 1025.01 1024.86 1025.15 1025.24 1025.36 1025.58 1025.62 1025.63
1018.35 1018.80 1019.01 1019.12 1019.39 1019.73 1019.88 1020.40 1020.99 1021.33 1021.70 1022.01 1022.22 1022.54 1022.76 1023.02 1023.27 1023.49 1023.63 1023.71 1023.95 1023.99 1024.06 1024.27 1024.56 1024.75 1024.98 1025.24 1025.42 1025.66 1025.84 1025.93 1026.09 1025.94 1025.74 1025.55 1025.58 1025.65 1025.75 1025.89 1025.94 1026.03 1025.99
1018.50 1018.91 1019.15 1019.29 1019.44 1019.86 1020.33 1020.93 1021.33 1021.63 1021.96 1022.25 1022.54 1022.83 1022.94 1023.33 1023.69 1023.77 1023.93 1024.04 1024.23 1024.21 1024.39 1024.71 1024.85 1025.17 1025.44 1025.68 1025.90 1026.03 1026.38 1026.49 1026.58 1026.61 1026.41 1026.30 1026.25 1026.28 1026.32 1026.19 1026.27 1026.29 1026.30
1018.47 1018.83 1019.16 1019.27 1019.57 1020.06 1020.58 1021.16 1021.59 1021.97 1022.11 1022.49 1022.69 1022.80 1022.99 1023.39 1023.77 1023.93 1024.13 1024.31 1024.42 1024.54 1024.77 1025.01 1025.30 1025.57 1025.86 1026.04 1026.38 1026.59 1026.85 1026.97 1027.09 1027.18 1027.08 1027.03 1026.96 1026.94 1026.81 1026.71 1026.73 1026.68 1026.64
1018.29 1018.72 1019.12 1019.43 1019.82 1020.28 1020.63 1021.18 1021.65 1022.00 1022.19 1022.59 1022.82 1022.97 1023.15 1023.43 1023.73 1024.01 1024.32 1024.56 1024.68 1024.78 1025.00 1025.38 1025.74 1025.96 1026.29 1026.48 1026.74 1027.07 1027.23 1027.46 1027.66 1027.72 1027.77 1027.81 1027.71 1027.53 1027.30 1027.26 1027.26 1027.22 1027.28
1018.23 1018.88 1019.16 1019.46 1019.92 1020.38 1020.70 1021.26 1021.63 1021.96 1022.21 1022.54 1022.80 1022.99 1023.14 1023.42 1023.67 1024.12 1024.40 1024.67 1024.83 1025.07 1025.31 1025.64 1026.03 1026.54 1026.82 1027.07 1027.41 1027.63 1027.83 1027.93 1028.18 1028.26 1028.26 1028.28 1028.35 1028.26 1028.09 1028.02 1027.90 1027.90 1027.98
1018.03 1018.72 1019.22 1019.47 1019.93 1020.38 1020.66 1021.22 1021.55 1021.88 1022.26 1022.54 1022.79 1023.06 1023.25 1023.48 1023.76 1024.06 1024.41 1024.71 1024.90 1025.21 1025.56 1025.72 1026.34 1026.62 1027.25 1027.63 1027.88 1028.19 1028.37 1028.49 1028.51 1028.48 1028.63 1028.73 1028.74 1028.80 1028.86 1028.70 1028.66 1028.70 1028.61
1018.04 1018.59 1018.98 1019.34 1019.81 1020.20 1020.57 1021.00 1021.40 1021.90 1022.17 1022.54 1022.69 1023.03 1023.29 1023.51 1023.75 1024.13 1024.47 1024.77 1025.05 1025.45 1025.85 1026.06 1026.48 1027.05 1027.44 1027.78 1028.27 1028.74 1028.91 1028.83 1028.80 1028.82 1028.90 1028.88 1029.02 1029.20 1029.36 1029.42 1029.52 1029.42 1029.18
1017.78 1018.32 1018.78 1019.05 1019.68 1020.09 1020.55 1021.01 1021.52 1021.86 1022.17 1022.51 1022.75 1022.80 1023.16 1023.46 1023.78 1024.15 1024.49 1024.87 1025.17 1025.50 1025.88 1026.20 1026.81 1027.31 1028.02 1028.15 1028.55 1029.25 1029.27 1029.11 1029.05 1029.12 1029.12 1029.15 1029.30 1029.52 1029.64 1029.85 1030.03 1030.07 1029.95
1017.46 1017.79 1018.34 1018.89 1019.47 1019.84 1020.19 1020.65 1020.98 1021.58 1022.14 1022.31 1022.55 1022.84 1022.98 1023.32 1023.71 1024.17 1024.57 1024.87 1025.24 1025.69 1026.05 1026.40 1026.71 1027.51 1027.85 1028.01 1028.45 1029.08 1029.54 1029.53 1029.24 1029.22 1029.25 1029.27 1029.57 1029.72 1029.92 1030.17 1030.30 1030.32 1030.24
1017.17 1017.32 1017.83 1018.49 1019.13 1019.59 1020.00 1020.51 1021.20 1021.77 1022.31 1022.68 1022.91 1023.07 1023.13 1023.23 1023.52 1023.89 1024.36 1024.71 1025.09 1025.48 1025.90 1026.18 1026.47 1026.81 1027.53 1027.87 1027.81 1028.11 1029.29 1029.18 1029.27 1029.24 1029.32 1029.48 1029.77 1030.01 1030.23 1030.32 1030.35 1030.31 1030.26
1016.63 1016.99 1017.42 1018.04 1018.66 1019.28 1019.81 1020.24 1020.66 1021.32 1021.99 1022.38 1022.55 1022.86 1023.02 1023.26 1023.49 1023.70 1024.11 1024.55 1024.83 1025.24 1025.68 1025.88 1026.13 1026.54 1026.99 1027.56 1027.95 1027.91 1027.95 1028.31 1029.00 1029.55 1029.48 1029.61 1029.81 1030.06 1030.18 1030.20 1030.33 1030.27 1030.18
1016.45 1016.77 1017.16 1017.62 1018.32 1018.90 1019.44 1019.86 1020.45 1020.99 1021.62 1022.05 1022.47 1022.77 1023.08 1023.23 1023.51 1023.64 1023.88 1024.32 1024.72 1025.08 1025.36 1025.69 1026.07 1026.35 1026.68 1027.21 1027.57 1027.92 1028.24 1028.42 1028.59 1029.07 1029.59 1029.75 1029.82 1029.89 1030.03 1030.24 1030.43 1030.45 1030.37
1016.57 1016.93 1017.13 1017.51 1018.02 1018.59 1019.14 1019.59 1020.09 1020.67 1021.49 1022.12 1022.47 1022.80 1022.96 1023.21 1023.43 1023.55 1023.69 1023.98 1024.38 1024.78 1025.21 1025.45 1025.73 1026.11 1026.42 1026.69 1026.98 1027.29 1027.59 1028.04 1028.52 1028.86 1029.46 1029.82 1030.05 1030.28 1030.47 1030.57 1030.62 1030.60 1030.51
Thickness
5685 5689 5687 5689 5689 5689 5689 5690 5693 5695 5698 5698 5698 5697 5698 5697 5697 5698 5698 5699 5700 5700 5700 5700 5698 5697 5697 5699 5698 5696 5696 5697 5697 5698 5697 5697 5696 5694 5693 5693 5692 5690 5691
5688 5687 5686 5686 5685 5686 5688 5689 5690 5694 5694 5694 5694 5694 5694 5694 5695 5693 5694 5694 5695 5696 5696 5695 5695 5695 5693 5691 5690 5689 5690 5691 5692 5691 5690 5688 5689 5690 5690 5688 5686 5686 5686
5687 5684 5685 5683 5682 5684 5686 5685 5687 5689 5689 5688 5689 5689 5689 5688 5690 5688 5689 5689 5689 5689 5690 5689 5690 5689 5689 5687 5687 5687 5688 5688 5689 5688 5686 5685 5686 5685 5683 5682 5683 5683 5683
5684 5682 5682 5679 5679 5680 5681 5681 5683 5684 5684 5684 5683 5683 5682 5682 5684 5683 5685 5684 5683 5684 5682 5682 5683 5681 5682 5682 5681 5681 5681 5682 5681 5682 5682 5680 5681 5679 5678 5679 5679 5678 5679
5681 5681 5679 5678 5676 5676 5677 5678 5680 5681 5682 5679 5677 5675 5673 5675 5678 5678 5679 5679 5679 5678 5678 5677 5677 5677 5678 5677 5676 5676 5677 5677 5677 5677 5677 5676 5676 5675 5676 5675 5675 5674 5673
5677 5678 5676 5675 5675 5674 5673 5673 5674 5676 5677 5676 5670 5665 5664 5668 5671 5673 5674 5674 5676 5674 5673 5672 5673 5673 5674 5675 5673 5673 5673 5673 5674 5673 5675 5673 5673 5671 5670 5669 5668 5667 5668
5675 5674 5673 5672 5672 5670 5671 5667 5667 5669 5670 5673 5670 5662 5658 5665 5668 5668 5669 5670 5670 5669 5668 5671 5671 5669 5670 5668 5668 5668 5667 5668 5668 5668 5669 5667 5665 5666 5665 5665 5666 5666 5668
5672 5670 5668 5668 5667 5667 5668 5665 5665 5662 5663 5667 5662 5659 5659 5661 5663 5663 5665 5668 5668 5666 5665 5666 5665 5666 5666 5664 5665 5664 5664 5664 5664 5663 5664 5663 5662 5663 5662 5663 5664 5663 5664
5666 5665 5664 5664 5663 5664 5664 5665 5664 5661 5661 5661 5659 5658 5658 5659 5660 5661 5664 5665 5664 5664 5663 5663 5662 5662 5662 5662 5662 5661 5661 5660 5661 5661 5661 5660 5660 5661 5659 5660 5661 5661 5660
5662 5662 5658 5660 5660 5661 5662 5662 5660 5659 5658 5658 5657 5656 5655 5655 5657 5659 5661 5661 5661 5661 5661 5660 5659 5660 5659 5659 5660 5658 5657 5658 5658 5658 5659 5657 5657 5657 5656 5658 5658 5656 5655
5658 5657 5656 5658 5657 5658 5659 5658 5658 5656 5655 5653 5653 5654 5655 5654 5656 5657 5658 5658 5660 5661 5661 5658 5659 5659 5659 5658 5657 5657 5657 5655 5654 5656 5655 5652 5654 5654 5653 5654 5652 5650 5650
5654 5654 5655 5655 5656 5656 5656 5657 5655 5654 5652 5652 5651 5652 5652 5652 5654 5655 5655 5657 5658 5659 5659 5658 5657 5657 5658 5656 5654 5652 5652 5651 5651 5651 5650 5649 5651 5650 5650 5648 5646 5645 5643
5654 5654 5653 5655 5654 5654 5654 5655 5653 5652 5650 5650 5649 5651 5650 5653 5653 5652 5653 5654 5653 5655 5657 5656 5655 5656 5656 5654 5651 5650 5649 5649 5648 5648 5646 5646 5648 5645 5645 5644 5642 5640 5639
5653 5651 5653 5654 5654 5654 5655 5654 5652 5651 5650 5649 5649 5648 5649 5650 5650 5651 5652 5652 5651 5652 5654 5655 5653 5653 5651 5650 5648 5647 5646 5644 5642 5642 5642 5642 5641 5641 5640 5639 5637 5636 5636
5653 5651 5651 5653 5655 5654 5653 5651 5650 5651 5650 5649 5649 5648 5650 5650 5649 5650 5651 5651 5650 5653 5653 5652 5652 5650 5648 5646 5644 5644 5641 5639 5637 5636 5638 5636 5636 5635 5634 5635 5633 5633 5632
5655 5653 5653 5656 5655 5655 5653 5650 5649 5648 5650 5648 5649 5651 5651 5650 5649 5649 5650 5650 5650 5651 5651 5650 5649 5647 5645 5643 5641 5639 5636 5634 5633 5631 5632 5631 5630 5629 5629 5630 5629 5628 5628
5656 5656 5654 5655 5655 5654 5654 5651 5649 5649 5650 5649 5650 5651 5650 5650 5649 5649 5649 5649 5649 5649 5648 5646 5645 5643 5641 5639 5637 5634 5632 5630 5628 5627 5627 5625 5624 5624 5625 5624 5623 5622 5621
5656 5654 5655 5656 5655 5654 5654 5652 5651 5650 5651 5651 5651 5652 5652 5651 5651 5649 5648 5648 5648 5647 5646 5645 5642 5639 5636 5634 5632 5629 5627 5626 5624 5622 5621 5621 5619 5619 5618 5617 5616 5615 5613
5657 5655 5655 5657 5656 5655 5655 5653 5652 5652 5651 5652 5652 5651 5651 5651 5650 5649 5648 5647 5647 5646 5644 5642 5639 5637 5632 5629 5627 5624 5622 5621 5620 5618 5617 5616 5614 5613 5611 5610 5609 5606 5604
5658 5656 5656 5657 5657 5657 5655 5654 5653 5651 5652 5651 5652 5650 5650 5649 5649 5648 5647 5646 5644 5643 5640 5639 5636 5633 5630 5627 5623 5619 5617 5616 5616 5615 5613 5612 5610 5607 5605 5604 5601 5598 5596
5659 5658 5658 5659 5657 5658 5656 5654 5652 5650 5650 5649 5650 5650 5649 5647 5647 5645 5644 5642 5641 5639 5637 5635 5631 5628 5623 5622 5618 5612 5611 5611 5611 5610 5609 5607 5604 5602 5599 5596 5593 5591 5589
5659 5661 5660 5659 5657 5658 5658 5655 5655 5652 5650 5650 5649 5648 5648 5646 5644 5642 5640 5639 5637 5635 5632 5630 5629 5623 5621 5619 5615 5610 5607 5606 5606 5605 5603 5601 5599 5596 5593 5589 5586 5584 5582
5659 5662 5662 5660 5658 5657 5656 5654 5651 5650 5647 5645 5644 5644 5645 5644 5642 5641 5638 5636 5634 5632 5630 5628 5626 5624 5618 5616 5616 5614 5601 5603 5602 5601 5599 5596 5592 5589 5586 5583 5581 5579 5576
5661 5662 5663 5661 5659 5657 5655 5654 5652 5649 5645 5645 5645 5643 5643 5641 5640 5638 5636 5633 5632 5630 5628 5626 5624 5621 5618 5614 5611 5611 5610 5606 5600 5595 5592 5589 5587 5584 5581 5577 5575 5572 5570
5660 5660 5661 5661 5659 5656 5654 5653 5651 5649 5645 5644 5642 5641 5640 5638 5637 5636 5635 5631 5629 5627 5625 5623 5620 5618 5616 5613 5610 5606 5603 5599 5597 5592 5587 5583 5580 5577 5574 5570 5567 5564 5561
5655 5657 5659 5659 5658 5656 5654 5652 5650 5648 5642 5640 5639 5638 5637 5636 5634 5634 5633 5631 5628 5625 5622 5620 5618 5615 5613 5611 5608 5605 5602 5598 5592 5588 5581 5576 5574 5569 5566 5562 5559 5557 5554